Torna al catalogo

STARLINK-6081

AttivoComunicazioniVLEO
NORAD 56108·PAYLOAD·🇺🇸 United States

Lanciato Mar 29, 2023 da Cape Canaveral Space Force Station

Loading…

Prossimi Passaggi (prossime 24 ore)

TLE

AggiornatoSource: CelesTrak SupGP

Epoca: Sep 15, 2026, 01:30 UTC

1 56108C 23046R   26258.06298611 -.00015790  00000+0 -57206-3 0  2585
2 56108  42.9994 172.0009 0000873 261.9632 128.1249 15.27578198    16

Traccia STARLINK-6081 in tempo reale con AllMySat

Download on the App Store